Regional Weather Roundup
Issued by NWS

Home | Current Version | Previous Version | Graphics & Text | Print | Product List | Glossary On
Versions: 1 2 3 4 5 6 7 8 9 10 11 12 13 14 15 16 17 18 19 20 21 22 23 24 25 26 27 28 29 30 31 32 33 34 35 36 37 38 39 40 41 42 43 44 45 46 47 48 49 50
758
ASUS43 KBIS 110431
RWRND
NORTH DAKOTA REGIONAL WEATHER ROUNDUP
NATIONAL WEATHER SERVICE EASTERN NORTH DAKOTA/GRAND FORKS ND
1000 PM CST WED FEB 10 2016

  NOTE: "FAIR" INDICATES FEW OR NO CLOUDS BELOW 12,000 FEET WITH NO
  SIGNIFICANT WEATHER AND/OR OBSTRUCTIONS TO VISIBILITY.

NDZ001>003-009>011-017-110500-
...NORTHWEST NORTH DAKOTA...

CITY           SKY/WX    TMP DP  RH WIND       PRES   REMARKS
WILLISTON      CLOUDY    27  23  85 E5        30.14F WCI  22
MINOT          CLOUDY    13   5  70 E3        30.19F
MINOT AFB      CLOUDY    11   8  89 E2        30.20F
$$

NDZ018>021-031>035-040>046-110500-
...SOUTHWEST NORTH DAKOTA...

CITY           SKY/WX    TMP DP  RH WIND       PRES   REMARKS
BISMARCK       CLOUDY    18  10  71 E7        30.22R WCI   9
DICKINSON      CLOUDY    24  19  81 E6        30.11S WCI  17
GARRISON         N/A     13   8  81 SE3       30.20R
HETTINGER      CLOUDY    30  24  78 NW3       30.13S
$$

NDZ004>008-012>016-024-026-027-054-110500-
...NORTHEAST NORTH DAKOTA...

CITY           SKY/WX    TMP DP  RH WIND       PRES   REMARKS
GRAND FORKS    PTCLDY     5  -4  66 N5        30.31S WCI  -4
GRAND FORKS AF CLOUDY     4  -3  74 N3        30.30R
DEVILS LAKE    CLOUDY     5   0  79 CALM      30.25S
$$

NDZ022-023-025-028>030-036>039-047>053-110500-
...SOUTHEAST NORTH DAKOTA...

CITY           SKY/WX    TMP DP  RH WIND       PRES   REMARKS
JAMESTOWN      CLOUDY     8   1  73 E3        30.24R
FARGO          CLOUDY     9   0  67 N6        30.29R WCI  -1
WAHPETON       CLOUDY    10   3  72 N5        30.28R WCI   2
$$




USA.gov is the U.S. government's official web portal to all federal, state and local government web resources and services.